AirNav   Phillips 66 Aviation Fuel
 
 723 users online  

KPYP Centre-Piedmont-Cherokee County Regional Airport
Centre, Alabama, USA

GOING TO CENTRE?


FAA INFORMATION EFFECTIVE 03 JANUARY 2019

Location

FAA Identifier: PYP
Lat/Long: 34-05-23.7000N / 085-36-36.3000W
34-05.395000N / 085-36.605000W
34.0899167 / -85.6100833
(estimated)
Elevation: 594.6 ft. / 181 m (estimated)
Variation: 04W (2010)
From city: 5 miles S of CENTRE, AL
Time zone: UTC -6 (UTC -5 during Daylight Saving Time)
Zip code: 35960

Airport Operations

Airport use: Open to the public
Activation date: 09/2007
Control tower: no
ARTCC: ATLANTA CENTER
FSS: ANNISTON FLIGHT SERVICE STATION
NOTAMs facility: ANB (NOTAM-D service available)
Attendance: UNATNDD
Wind indicator: lighted
Segmented circle: yes
Lights: ACTVT MIRL RY 07/25 - CTAF.
Beacon: white-green (lighted land airport)
Operates sunset to sunrise.

Airport Communications

CTAF: 122.9
  • APCH/DEP SERVICE PROVIDED BY ATLANTA ARTCC ON FREQS 124.5/270.325 (GADSDEN RCAG).

Nearby radio navigation aids

VOR radial/distance  VOR name  Freq  Var
GADr072/24.5GADSDEN VOR/DME112.3002E
RMGr259/24.8ROME VORTAC115.4001E
TDGr033/37.7TALLADEGA VOR/DME108.8002E

 
NDB name  Hdg/Dist  Freq  Var  ID
FORT PAYNE177/26.142604WFTP ..-. - .--.
CARTERSVILLE264/38.730804WEVZ . ...- --..
CALHOUN246/38.732305WOUK --- ..- -.-
CARROLLTON327/39.527804WGPQ --. .--. --.-

Airport Services

Fuel available: 100LL
Parking: tiedowns

Runway Information

Runway 7/25

Dimensions: 5500 x 100 ft. / 1676 x 30 m
Surface: asphalt/aggregate friction seal coat, in good condition
Runway edge lights: medium intensity
RUNWAY 7  RUNWAY 25
Latitude: 34-05.189240N34-05.601052N
Longitude: 085-37.089855W085-36.118890W
Elevation: 584.4 ft.594.6 ft.
Traffic pattern: leftleft
Runway heading: 067 magnetic, 063 true247 magnetic, 243 true
Markings: nonprecision, in good conditionnonprecision, in good condition
Touchdown point: yes, no lightsyes, no lights
Obstructions: 65 ft. trees, 2929 ft. from runway, 261 ft. left of centerline, 41:1 slope to clearnone

Airport Ownership and Management from official FAA records

Ownership: Publicly-owned
Owner: CPCCR AIRPORT AUTHORITY
P.O. BOX 466
CENTRE, AL 35960
Phone (256) 927-8008
Manager: DONNIE FREE
P.O. 466
CENTRE, AL 35960
Phone (256) 557-0404

Airport Operational Statistics

Aircraft based on the field: 19
Single engine airplanes: 18
Multi engine airplanes: 1
    

Instrument Procedures

NOTE: All procedures below are presented as PDF files. If you need a reader for these files, you should download the free Adobe Reader.

NOT FOR NAVIGATION. Please procure official charts for flight.
FAA instrument procedures published for use from 3 January 2019 at 0901Z to 31 January 2019 at 0900Z.

 
IAPs - Instrument Approach Procedures
RNAV (GPS) RWY 07   download (218KB)
RNAV (GPS) RWY 25   download (194KB)
NOTE: Special Take-Off Minimums/Departure Procedures apply   download (189KB)

Other nearby airports with instrument procedures:

4A4 - Polk County Airport - Cornelius Moore Field (23 nm E)
4A9 - Isbell Field Airport (24 nm N)
KGAD - Northeast Alabama Regional Airport (25 nm W)
KRMG - Richard B. Russell Regional Airport - J.H. Towers Field (27 nm NE)
KANB - Anniston Regional Airport (33 nm S)
 
Loc | Ops | Rwys | IFR | FBO | Links
Com | Nav | Svcs | Stats | Notes
Area around KPYP (Centre-Piedmont-Cherokee County Regional Airport)
 
Road maps at: MapQuest Bing Google
 
Aerial photo
WARNING: Photo may not be current or correct
Aerial photo of KPYP (Centre-Piedmont-Cherokee County Regional Airport)
Photo by Harley McGatha
Photo taken 10-Nov-2007
from a PA24-260B Comanche

Do you have a better or more recent aerial photo of Centre-Piedmont-Cherokee County Regional Airport that you would like to share? If so, please send us your photo.

 
Sectional chart

 
Airport distance calculator
Flying to Centre-Piedmont-Cherokee County Regional Airport? Find the distance to fly.

From to KPYP

Sunrise and sunset
Times for 18-Jan-2019
 Local
(UTC-6)
 Zulu
(UTC)
Morning civil twilight06:2112:21
Sunrise06:4812:48
Sunset16:5822:58
Evening civil twilight17:2523:25

Current date and time
Zulu (UTC)  18-Jan-2019 13:07:57
Local (UTC-6)  18-Jan-2019 07:07:57
 
METAR
K4A9 
24nm N 
181255Z AUTO 00000KT M1/4SM FG OVC003 07/ A3010 RMK AO2 T0072////
KGAD 
24nm W 
181156Z AUTO 00000KT 1/4SM FG OVC003 08/08 A3011 RMK AO2 SLP203 60001 7//// T00830083 10083 20083 52001
KRMG 
27nm NE 
181253Z AUTO 00000KT 1/4SM FG VV002 08/07 A3012 RMK AO2 SLP196 T00780067
KANB 
33nm S 
181253Z AUTO 00000KT 1/4SM FG VV002 09/09 A3012 RMK AO2 SLP205 T00940089
K8A0 
33nm W 
181255Z AUTO 17003KT 1/2SM FG OVC002 08/08 A3011 RMK AO2
KPUJ 
35nm E 
181255Z AUTO 30003KT 1 3/4SM BR OVC002 08/08 A3010 RMK AO2
KCTJ 
36nm SE 
181255Z AUTO 00000KT 1/2SM FG 08/08 A3015 RMK AO2 T00820082
KVPC 
38nm E 
181253Z AUTO 00000KT 4SM BR OVC005 07/07 A3013 RMK AO2 RAE1154 SLP200 P0001 T00720067
KASN 
38nm SW 
181255Z AUTO 00000KT 1/4SM FG OVC001 10/10 A3013 RMK AO2 P0001 T00950095
K9A5 
39nm NE 
181255Z AUTO 00000KT 1/2SM OVC002 06/06 A3012 RMK AO2 T00620062
TAF
KANB 
33nm S 
181130Z 1812/1912 00000KT 1SM BR OVC003 TEMPO 1812/1814 1/2SM FG OVC002 FM181700 17003KT P6SM OVC007 FM182000 VRB03KT P6SM OVC010 FM190000 VRB03KT 4SM BR OVC007 FM190600 15007KT 4SM BR OVC005 FM190900 17012KT 2SM -DZ OVC003
KASN 
38nm SW 
181130Z 1812/1912 00000KT 1SM BR OVC003 TEMPO 1812/1814 1/2SM FG FM181700 VRB03KT P6SM OVC007 FM190100 VRB03KT 4SM BR OVC005 FM190600 15007KT 4SM BR OVC005 FM190900 17012KT 2SM -DZ OVC003
NOTAMs
Click for the latest NOTAMs
NOTAMs are issued by the DoD/FAA and will open in a separate window not controlled by AirNav.

 

 
 

FBO, Fuel Providers, and Aircraft Ground Support

  
 Business Name 
 
 Contact 
 
 Services / Description 
 
Fuel Prices
 
Comments
  
Centre-Piedmont-Cherokee County Regional Airport 256-927-8009
[email]
Airport management, Aviation fuel, Aircraft parking (ramp or tiedown), Hangar leasing / sales, Passenger terminal and lounge, Aircraft maintenance, ...

More info about Centre-Piedmont-Cherokee County Regional Airport
Phillips 66
100LL
SS $4.40 
 Updated 20-Aug-2018
 
   2 read write
SS=Self service
Update Fuel Prices
 

Would you like to see your business listed on this page?

 If your business provides an interesting product or service to pilots, flight crews, aircraft, or users of the Centre-Piedmont-Cherokee County Regional Airport, you should consider listing it here.  To start the listing process, click on the button below
 
Add a business
 

Other Pages about Centre-Piedmont-Cherokee County Regional Airport

Update a link
 
Copyright © AirNav, LLC. All rights reserved. Privacy Policy  Contact